[[{"header":{"parameterUnit":"m.s-1","parameterCategory":1,"la1":30.2991,"la2":30.254,"lo1":-89.0895,"lo2":-89.0444,"dy":0.0017,"dx":0.0017,"nx":28,"ny":28,"refTime":"2025-11-28T09:00:00:Z","depth":0,"parameterNumber":2,"parameterNumberName":"U-component_of_WINDS"},"data":[0,0,0,0,0,0,0,0,0,0,0,0,0,0,0,0,0,0,0,0,0,0,0,0,0,0,0,0,0,0,0,0,0,0,0,0,0,0,0,0,0,0,0,0,0,0,0,0,0,0,0,0,0,0,0,0,0,0,-6.9221,-6.9221,0,-6.9284,-6.9284,-6.9285,-6.9121,-6.9115,-6.911,-6.9105,-6.9168,-6.9175,-6.9181,0,0,0,0,0,0,0,0,0,0,0,0,0,-6.8956,-6.8962,-6.9221,-6.9221,-6.9222,-6.9284,-6.9284,-6.9285,-6.9121,-6.9115,-6.9109,-6.9103,-6.9166,-6.9174,-6.9182,0,0,0,0,0,0,0,0,0,0,0,0,0,-6.9051,-6.8964,-6.922,-6.9148,-6.9142,-6.9283,-6.9284,-6.9285,-6.9123,-6.9115,-6.9107,-6.91,-6.9164,-6.9173,-6.9183,-6.9397,0,0,-6.9212,-6.9217,0,0,0,0,0,0,0,0,-6.9045,-6.906,-6.9158,-6.9153,-6.9147,-6.9186,-6.9214,-6.9323,-6.9125,-6.913,-6.9105,-6.9096,-6.9181,-6.9188,-6.9217,-6.94,-6.9402,-6.9213,-6.9219,-6.9223,-6.9226,0,0,0,0,0,0,0,-6.9039,-6.9057,-6.9245,-6.9159,-6.9153,-6.9111,-6.9116,-6.9234,-6.9198,-6.9129,-6.9117,-6.9127,-6.9176,-6.9208,-6.9217,-6.9403,-6.9213,-6.9222,-6.9228,-6.9231,-6.9762,-6.977,0,0,0,0,0,0,-6.9042,-6.9052,-6.9243,-6.9247,-6.9076,-6.9123,-6.9128,-6.9181,-6.9196,-6.9191,-6.9134,-6.9119,-6.9195,-6.9206,-6.9219,-6.9467,-6.9223,-6.9232,-6.9238,-6.9754,-6.9764,-6.9773,0,0,0,0,0,0,-6.9037,-6.9061,-6.9241,-6.9147,-6.9166,-6.9135,-6.9197,-6.9187,-6.9218,-6.9199,-6.9192,-6.9173,-6.919,-6.9205,-6.9353,-6.9467,-6.9237,-6.9245,-6.9744,-6.9757,-6.9768,-6.9969,0,0,0,0,0,0,-6.903,-6.906,-6.9141,-6.915,-6.9172,-6.9375,-6.9204,-6.9194,-6.9236,-6.9218,-6.9234,-6.923,-6.9185,-6.934,-6.9363,-6.9477,-6.9253,-6.9734,-6.975,-6.9764,-6.9952,-6.9987,-7.0016,0,0,0,0,0,-6.9021,-6.9196,-6.9146,-6.917,-6.9273,-6.9382,-6.9395,-6.934,-6.9246,-6.9327,-6.9314,-6.9229,-6.9453,-6.9356,-6.9381,-6.9499,-6.9726,-6.9745,-6.9763,-6.9937,-6.998,-7.0016,0,0,0,0,0,0,-6.9201,-6.9195,-6.9141,-6.9323,-6.9355,-6.9354,-6.9454,-6.9387,-6.9445,-6.9426,-6.9355,-6.936,-6.9521,-6.9525,-6.9418,-6.9706,-6.9573,-6.9597,-6.9697,-6.9737,-6.9769,-6.9762,-6.9261,0,0,0,0,0,-6.9262,-6.9351,-6.9341,-6.9503,-6.9522,-6.9487,-6.9532,-6.9487,-6.9516,-6.9528,-6.9527,-6.9558,-6.9634,-6.9687,-6.9756,-6.9953,-6.9953,-7.0047,-7.0079,-7.0106,-7.0126,-7.0228,-7.0269,-6.9834,-6.9834,-6.9834,0,0,-6.9388,-6.9396,-6.9457,-6.9539,-6.9558,-6.9651,-6.9498,-6.9604,-6.9671,-6.9544,-6.9682,-6.9684,-6.9714,-6.9886,-6.9962,-6.9895,-7.0247,-7.0129,-7.0151,-7.0157,-7.0251,-7.0292,-7.0329,-6.9847,-6.9844,-6.9842,0,0,-6.9665,-6.9682,-6.9816,-6.9839,-6.987,-6.9845,-6.9878,-6.9889,-6.9884,-7.0023,-6.9928,-7.0008,-7.0143,-7.0167,-7.0197,-7.0485,-7.0407,-7.051,-7.0677,-7.0777,-7.0811,-7.0841,-7.094,-7.0977,-7.0531,-7.0532,-7.0532,0,-6.9817,-6.9954,-6.9894,-7.0006,-7.0044,-6.9934,-7.0069,-7.0094,-7.0147,-7.0175,-7.01,-7.0265,-7.0278,-7.0453,-7.0523,-7.0553,-7.0586,-7.0505,-7.0811,-7.084,-7.0867,-7.0961,-7.0999,-7.0544,-7.0542,-7.0541,-7.054,0,-7.0138,-7.0235,-7.034,-7.0393,-7.0444,-7.0567,-7.0525,-7.0584,-7.0535,-7.0518,-7.066,-7.0672,-7.0741,-7.0781,-7.0734,-7.095,-7.0906,-7.0823,-7.0687,-7.0922,-7.1008,-7.1044,-7.0561,-7.0557,-7.0553,-7.055,0,0,-7.0527,-7.0546,-7.0585,-7.0607,-7.0634,-7.0707,-7.0825,-7.0893,-7.0943,-7.0984,-7.1079,-7.1196,-7.1118,-7.1153,-7.1109,-7.1197,-7.142,-7.1102,-7.1101,-7.1157,-7.1655,-7.1715,-7.1757,-7.1371,-7.1378,-7.1383,-7.1651,0,-7.0797,-7.0999,-7.0949,-7.1148,-7.1235,-7.1133,-7.1236,-7.1263,-7.1251,-7.1323,-7.1309,-7.1391,-7.1285,-7.1304,-7.1388,-7.1376,-7.1519,-7.1356,-7.1457,-7.1461,-7.1448,-7.1803,-7.1867,-7.2119,-7.1685,-7.1691,-7.1695,0,-7.1138,-7.1191,-7.14,-7.1411,-7.1446,-7.1539,-7.1596,-7.1667,-7.1695,-7.168,-7.172,-7.1658,-7.1773,-7.164,-7.1796,-7.1687,-7.1726,-7.1727,-7.1735,-7.1739,-7.1589,-7.1813,-7.2198,-7.2235,-7.1748,-7.1744,-7.174,0,-7.1396,-7.152,-7.166,-7.1683,-7.17,-7.1768,-7.1778,-7.1799,-7.1843,-7.1894,-7.1921,-7.1986,-7.202,-7.2071,-7.2027,-7.1935,-7.219,-7.2054,-7.2179,-7.218,-7.2233,-7.223,-7.2626,-7.2266,-7.2266,-7.2265,-7.2264,0,-7.17,-7.183,-7.1776,-7.1862,-7.2005,-7.1947,-7.209,-7.2088,-7.2108,-7.2191,-7.2108,-7.2188,-7.2128,-7.2202,-7.217,-7.2303,-7.232,-7.231,-7.2299,-7.2315,-7.2316,-7.2336,-7.2316,-7.2275,-7.2273,-7.2271,-7.2269,0,-7.201,-7.1979,-7.2124,-7.213,-7.2134,-7.2239,-7.2242,-7.2321,-7.2304,-7.241,-7.2432,-7.2405,-7.2488,-7.2451,-7.2539,-7.2517,-7.2687,-7.2655,-7.2677,-7.2667,-7.2792,-7.278,-7.3213,-7.3265,-7.2875,-7.2879,-7.2882,0,-7.2204,-7.2302,-7.2318,-7.2367,-7.2383,-7.2465,-7.2509,-7.2457,-7.2506,-7.2546,-7.262,-7.2696,-7.2753,-7.2891,-7.2879,-7.2945,-7.2911,-7.3059,-7.292,-7.2933,-7.2909,-7.2902,-7.291,-7.3085,-7.3089,-7.3093,-7.3096,0,-7.255,-7.253,-7.2597,-7.266,-7.2715,-7.2761,-7.28,-7.2846,-7.2795,-7.2854,-7.2938,-7.2983,-7.3073,-7.3148,-7.3207,-7.3217,-7.3148,-7.3141,-7.3172,-7.3187,-7.3194,-7.3188,-7.2748,-7.313,-7.3126,-7.3124,-7.3122,-7.3121,-7.2805,-7.2886,-7.291,-7.2987,-7.3011,-7.305,-7.3124,-7.3116,-7.3185,-7.3254,-7.3219,-7.3316,-7.3342,-7.3413,-7.3433,-7.3507,-7.3449,-7.3496,-7.3507,-7.3518,-7.3533,-7.3187,-7.3518,-7.3517,-7.3516,-7.3516,-7.3515,0,-7.3143,-7.3154,-7.3226,-7.3283,-7.3344,-7.3276,-7.3316,-7.337,-7.3457,-7.3487,-7.3546,-7.3642,-7.3715,-7.3709,-7.3776,-7.3837,-7.3807,-7.3856,-7.3849,-7.3852,-7.3583,-7.3547,-7.3879,-7.3879,-7.3879,-7.3879,-7.3879,-7.3879,-7.3326,-7.3459,-7.3442,-7.3586,-7.3596,-7.369,-7.3718,-7.3753,-7.3776,-7.3887,-7.3948,-7.3944,-7.3959,-7.4027,-7.4091,-7.4087,-7.4114,-7.4174,-7.4159,-7.3907,-7.3871,-7.3836,-7.3802,-7.4182,-7.4182,-7.442,-7.4422,-7.4424]},{"header":{"parameterUnit":"m.s-1","parameterCategory":1,"la1":30.2991,"la2":30.254,"lo1":-89.0895,"lo2":-89.0444,"dy":0.0017,"dx":0.0017,"nx":28,"ny":28,"refTime":"2025-11-28T09:00:00:Z","depth":0,"parameterNumber":3,"parameterNumberName":"V-component_of_WINDS"},"data":[0,0,0,0,0,0,0,0,0,0,0,0,0,0,0,0,0,0,0,0,0,0,0,0,0,0,0,0,0,0,0,0,0,0,0,0,0,0,0,0,0,0,0,0,0,0,0,0,0,0,0,0,0,0,0,0,0,0,-0.4366,-0.4367,0,-0.4407,-0.4408,-0.4408,-0.4464,-0.4465,-0.4466,-0.4467,-0.4507,-0.4507,-0.4507,0,0,0,0,0,0,0,0,0,0,0,0,0,-0.4335,-0.4335,-0.4366,-0.4367,-0.4367,-0.4407,-0.4408,-0.4408,-0.4464,-0.4465,-0.4466,-0.4467,-0.4507,-0.4507,-0.4507,0,0,0,0,0,0,0,0,0,0,0,0,0,-0.4359,-0.4335,-0.4366,-0.44,-0.4403,-0.4407,-0.4408,-0.4408,-0.4463,-0.4465,-0.4466,-0.4468,-0.4507,-0.4507,-0.4507,-0.4481,0,0,-0.4508,-0.4508,0,0,0,0,0,0,0,0,-0.4358,-0.436,-0.4395,-0.4398,-0.4402,-0.4432,-0.4411,-0.4432,-0.4463,-0.4441,-0.4467,-0.4468,-0.4481,-0.4483,-0.4488,-0.4483,-0.4484,-0.4508,-0.4508,-0.4509,-0.4509,0,0,0,0,0,0,0,-0.4356,-0.4359,-0.4383,-0.4395,-0.4399,-0.4412,-0.4417,-0.4415,-0.4452,-0.4443,-0.4447,-0.4451,-0.4483,-0.4487,-0.4489,-0.4485,-0.4508,-0.4508,-0.4509,-0.4509,-0.4458,-0.4456,0,0,0,0,0,0,-0.435,-0.4357,-0.4381,-0.4384,-0.4383,-0.4412,-0.4417,-0.4421,-0.4452,-0.4459,-0.445,-0.4453,-0.4486,-0.4489,-0.4491,-0.446,-0.4509,-0.4509,-0.4509,-0.4459,-0.4457,-0.4456,0,0,0,0,0,0,-0.4349,-0.4351,-0.438,-0.4372,-0.4376,-0.4411,-0.4414,-0.4421,-0.4425,-0.4458,-0.4464,-0.4448,-0.4487,-0.449,-0.4482,-0.4462,-0.4509,-0.4509,-0.4461,-0.4459,-0.4457,-0.4399,0,0,0,0,0,0,-0.4348,-0.4351,-0.4341,-0.4371,-0.4376,-0.4371,-0.4413,-0.442,-0.4426,-0.4431,-0.4457,-0.4463,-0.4489,-0.4482,-0.4483,-0.4463,-0.4509,-0.4463,-0.446,-0.4457,-0.4403,-0.4395,-0.4388,0,0,0,0,0,-0.4346,-0.4324,-0.4341,-0.4343,-0.4366,-0.437,-0.4373,-0.4403,-0.4424,-0.4414,-0.4435,-0.4462,-0.4464,-0.448,-0.4482,-0.4462,-0.4464,-0.4461,-0.4457,-0.4406,-0.4396,-0.4388,0,0,0,0,0,0,-0.4291,-0.4328,-0.4347,-0.4334,-0.4348,-0.4379,-0.4368,-0.4392,-0.4401,-0.4405,-0.4442,-0.4447,-0.4434,-0.4448,-0.4465,-0.4437,-0.4468,-0.4465,-0.4429,-0.442,-0.4413,-0.4409,-0.451,0,0,0,0,0,-0.4277,-0.4278,-0.431,-0.4295,-0.4302,-0.4333,-0.4336,-0.4358,-0.4374,-0.4381,-0.4401,-0.4415,-0.4419,-0.442,-0.4426,-0.4405,-0.4411,-0.4393,-0.4385,-0.4379,-0.4375,-0.4364,-0.4355,-0.4444,-0.4444,-0.4445,0,0,-0.4249,-0.4269,-0.4267,-0.4285,-0.4298,-0.4297,-0.4338,-0.4336,-0.4335,-0.438,-0.4374,-0.4389,-0.4407,-0.4392,-0.4386,-0.4403,-0.4352,-0.4375,-0.437,-0.4369,-0.4359,-0.4351,-0.4343,-0.4442,-0.4443,-0.4443,0,0,-0.4196,-0.4212,-0.4201,-0.4213,-0.4233,-0.4254,-0.4251,-0.4279,-0.429,-0.4284,-0.4317,-0.4317,-0.4323,-0.4334,-0.434,-0.429,-0.4314,-0.4291,-0.4252,-0.424,-0.4233,-0.4227,-0.4207,-0.42,-0.4287,-0.4287,-0.4287,0,-0.4158,-0.4158,-0.4191,-0.4186,-0.4192,-0.4233,-0.4221,-0.4231,-0.4252,-0.4254,-0.4273,-0.428,-0.4295,-0.4282,-0.427,-0.4274,-0.4271,-0.4287,-0.4232,-0.4226,-0.4221,-0.4202,-0.4195,-0.4284,-0.4284,-0.4284,-0.4285,0,-0.4109,-0.4109,-0.4097,-0.4115,-0.412,-0.4111,-0.4142,-0.4143,-0.4164,-0.4182,-0.4175,-0.4194,-0.4203,-0.4202,-0.4223,-0.4192,-0.4201,-0.4225,-0.4257,-0.4208,-0.4191,-0.4185,-0.4279,-0.428,-0.4281,-0.4282,0,0,-0.4022,-0.4059,-0.4054,-0.4062,-0.4086,-0.4086,-0.4079,-0.4088,-0.4086,-0.4099,-0.4092,-0.4096,-0.4118,-0.4125,-0.4147,-0.4137,-0.4093,-0.4162,-0.4163,-0.4147,-0.4057,-0.4038,-0.4029,-0.411,-0.4109,-0.4108,-0.4055,0,-0.3973,-0.3962,-0.3992,-0.3973,-0.3972,-0.401,-0.4004,-0.4017,-0.4034,-0.4035,-0.4054,-0.4055,-0.4085,-0.4089,-0.4081,-0.41,-0.4075,-0.4105,-0.4103,-0.4102,-0.4095,-0.4021,-0.4001,-0.395,-0.4049,-0.4048,-0.4047,0,-0.3914,-0.3923,-0.3904,-0.3928,-0.3929,-0.3922,-0.3932,-0.3933,-0.3948,-0.3962,-0.3968,-0.3995,-0.3988,-0.4019,-0.4009,-0.4028,-0.4029,-0.4038,-0.4037,-0.4037,-0.4071,-0.4017,-0.3935,-0.3926,-0.4037,-0.4038,-0.4039,0,-0.385,-0.3857,-0.3847,-0.3853,-0.3881,-0.3875,-0.3887,-0.3904,-0.3907,-0.3915,-0.3917,-0.3924,-0.3928,-0.3932,-0.3959,-0.398,-0.3945,-0.3979,-0.3954,-0.3953,-0.3944,-0.3944,-0.3859,-0.3948,-0.3948,-0.3948,-0.3948,0,-0.3791,-0.3777,-0.3818,-0.3811,-0.3797,-0.383,-0.3815,-0.383,-0.3845,-0.3841,-0.3875,-0.387,-0.3907,-0.3906,-0.3927,-0.3914,-0.3916,-0.3925,-0.393,-0.3921,-0.3919,-0.3921,-0.3925,-0.3946,-0.3946,-0.3947,-0.3947,0,-0.3716,-0.3744,-0.3734,-0.3761,-0.3768,-0.3756,-0.3779,-0.3773,-0.3792,-0.3786,-0.3787,-0.3817,-0.3817,-0.3845,-0.3851,-0.3865,-0.3843,-0.3856,-0.3837,-0.3841,-0.3813,-0.3815,-0.3725,-0.3715,-0.3811,-0.381,-0.3809,0,-0.3676,-0.3666,-0.3692,-0.3692,-0.3702,-0.3701,-0.3704,-0.3736,-0.3738,-0.3754,-0.3746,-0.3749,-0.3753,-0.3752,-0.3774,-0.3778,-0.379,-0.3758,-0.3791,-0.3781,-0.3787,-0.3787,-0.3785,-0.3751,-0.375,-0.3749,-0.3748,0,-0.36,-0.3614,-0.3617,-0.3624,-0.3627,-0.3634,-0.3644,-0.3641,-0.3676,-0.3676,-0.3677,-0.368,-0.3686,-0.3688,-0.3696,-0.3708,-0.3733,-0.3738,-0.3732,-0.3721,-0.371,-0.3714,-0.3816,-0.3739,-0.374,-0.3741,-0.3741,-0.3742,-0.3541,-0.3533,-0.355,-0.3552,-0.3562,-0.357,-0.3565,-0.3583,-0.3585,-0.3592,-0.3611,-0.3608,-0.3623,-0.3636,-0.3645,-0.3643,-0.3658,-0.365,-0.3648,-0.3645,-0.3639,-0.3712,-0.3644,-0.3645,-0.3645,-0.3645,-0.3645,0,-0.3465,-0.3478,-0.3479,-0.3491,-0.3492,-0.3516,-0.3528,-0.3526,-0.3524,-0.3535,-0.3539,-0.3538,-0.354,-0.3562,-0.3566,-0.356,-0.3571,-0.356,-0.356,-0.3561,-0.3626,-0.3629,-0.355,-0.355,-0.355,-0.355,-0.355,-0.355,-0.3426,-0.3414,-0.3429,-0.3422,-0.3435,-0.3432,-0.3436,-0.3443,-0.3452,-0.3451,-0.3452,-0.3467,-0.3482,-0.3487,-0.3489,-0.3496,-0.3495,-0.3479,-0.3488,-0.3548,-0.3557,-0.3566,-0.3569,-0.3479,-0.3478,-0.3424,-0.3424,-0.3423]}]]